Location: Henau
(47.4548°N, 9.1164°E)
Time: 00:33:23
(UTC+00:00)

SPOT 3 Rocket - Pass Details

Date: 03 March 2021
Orbit: 778 x 795 km, 98.7° (Epoch: 14 April)

Event Time Altitude Azimuth Distance (km) Brightness Sun altitude
Exits shadow 20:18:41 54° 300° (WNW) 958 4.2 -31.5°
Drops below altitude 10° 20:23:04 10° 339° (NNW) 2,373 6.6 -32.2°
Sets 20:25:26 0° 343° (NNW) 3,309 7.4 -32.5°
